Tracking 30107 objects as of 18-Jan-2025
HD Live streaming from Space Station
objects crossing your sky now

COSMOS 1285 DEB

Track COSMOS 1285 DEB now!


NORAD ID: 25840
Int'l Code: 1981-071J
Perigee: 4,156.0 km
Apogee: 36,675.9 km
Inclination: 68.9 °
Period: 727.2 minutes
Semi major axis: 26786 km
RCS: 0.2681 m2 (medium)
Launch date: August 4, 1981
Source: Commonwealth of Independent States (former USSR) (CIS)
Launch site: PLESETSK MISSILE AND SPACE COMPLEX (PKMTR)

Note: This is SATELLITE DEBRIS
Your satellite tracking list
Your tracking list is empty




NASA's NSSDC Master Catalog

Two Line Element Set (TLE):
1 25840U 81071J   25016.27735113  .00000021  00000-0  00000-0 0  9992
2 25840  68.8603 116.4812 6070095 357.4142   5.1060  1.98023904198868
Source of the keplerian elements: AFSPC